Powrót do katalogu

STARLINK-36327

AktywnyŁącznośćSSO
NORAD 67738·PAYLOAD·🇺🇸 United States

Wystrzelony Feb 11, 2026 z Vandenberg Space Force Base

Loading…

Następne Przeloty (najbliższe 24 godziny)

TLE

ŚwieżeSource: CelesTrak SupGP

Epoka: Sep 14, 2026, 21:46 UTC

1 67738C 26026T   26257.90743056 -.00008520  00000+0 -26452-3 0  2578
2 67738  97.2854 309.8543 0001081  94.4414 343.4783 15.33441031    14

Śledź STARLINK-36327 w czasie rzeczywistym z AllMySat

Download on the App Store